| time (UTC) | temp F | wind direction | speed MPH | gust MPH | rain 1hr in | rain 24hr in | rain mn in | humidity % | barometer mb |
| 20260906104529 | 54 | 0.0 | 0.0 | 0.00 | 0.00 | 0.00 | 87 | 1022.5 | |
| 20260906103028 | 54 | 0.0 | 0.0 | 0.00 | 0.00 | 0.00 | 86 | 1022.5 | |
| 20260906101531 | 54 | 1.0 | 3.0 | 0.00 | 0.00 | 0.00 | 87 | 1022.4 | |
| 20260906100030 | 54 | 0.0 | 2.0 | 0.00 | 0.00 | 0.00 | 87 | 1022.4 | |
| 20260906094525 | 54 | 0.0 | 3.0 | 0.00 | 0.00 | 0.00 | 87 | 1022.5 | |
| 20260906093035 | 54 | 0.0 | 3.0 | 0.00 | 0.00 | 0.00 | 87 | 1022.3 | |
| 20260906091523 | 54 | 0.0 | 3.0 | 0.00 | 0.00 | 0.00 | 86 | 1022.2 | |
| 20260906090036 | 55 | 0.0 | 1.0 | 0.00 | 0.00 | 0.00 | 86 | 1021.9 | |
| 20260906084520 | 55 | 0.0 | 1.0 | 0.00 | 0.00 | 0.00 | 86 | 1021.7 | |
| 20260906083021 | 55 | 0.0 | 1.0 | 0.00 | 0.00 | 0.00 | 85 | 1021.6 | |
| 20260906081518 | 55 | 0.0 | 2.0 | 0.00 | 0.00 | 0.00 | 84 | 1021.6 | |
| 20260906080019 | 56 | 0.0 | 2.0 | 0.00 | 0.00 | 0.00 | 84 | 1021.4 | |
| 20260906074514 | 56 | 0.0 | 1.0 | 0.00 | 0.00 | 0.00 | 86 | 1021.2 | |
| 20260906073012 | 57 | 0.0 | 1.0 | 0.00 | 0.00 | 0.00 | 84 | 1021.1 | |
| 20260906071511 | 57 | 0.0 | 1.0 | 0.00 | 0.00 | 0.00 | 83 | 1020.9 | |
| 20260906070012 | 58 | 0.0 | 3.0 | 0.00 | 0.00 | 0.00 | 82 | 1020.8 | |
| 20260906064510 | 58 | 0.0 | 3.0 | 0.00 | 0.02 | 0.00 | 82 | 1020.8 | |
| 20260906063010 | 58 | 0.0 | 3.0 | 0.00 | 0.02 | 0.00 | 82 | 1020.6 | |
| 20260906061509 | 58 | 1.0 | 6.0 | 0.00 | 0.02 | 0.00 | 83 | 1020.5 | |
| 20260906060008 | 59 | 0.0 | 3.0 | 0.00 | 0.02 | 0.00 | 81 | 1020.4 | |
| 20260906054506 | 59 | 2.0 | 6.0 | 0.00 | 0.06 | 0.00 | 78 | 1020.6 | |
| 20260906053007 | 59 | 0.0 | 3.0 | 0.00 | 0.06 | 0.00 | 81 | 1020.5 | |
| 20260906051507 | 59 | 1.0 | 7.0 | 0.00 | 0.06 | 0.00 | 81 | 1020.3 | |
| 20260906050004 | 59 | 3.0 | 6.0 | 0.00 | 0.06 | 0.00 | 79 | 1020.2 | |
| 20260906044503 | 59 | 2.0 | 6.0 | 0.00 | 0.09 | 0.00 | 82 | 1020.2 | |
| 20260906043002 | 58 | 2.0 | 8.0 | 0.00 | 0.09 | 0.00 | 81 | 1020.2 | |
| 20260906041502 | 59 | 3.0 | 7.0 | 0.00 | 0.09 | 0.00 | 80 | 1020.2 | |
| 20260906034627 | 59 | 1.0 | 3.0 | 0.00 | 0.09 | 0.00 | 81 | 1020.0 | |
| 20260906033058 | 59 | 1.0 | 3.0 | 0.00 | 0.09 | 0.00 | 80 | 1020.1 | |
| 20260906031600 | 60 | 2.0 | 5.0 | 0.00 | 0.09 | 0.00 | 77 | 1020.1 | |
| 20260906030055 | 59 | 0.0 | 2.0 | 0.00 | 0.09 | 0.00 | 77 | 1020.2 | |
| 20260906024554 | 58 | 0.0 | 7.0 | 0.00 | 0.09 | 0.00 | 81 | 1020.3 | |
| 20260906023056 | 59 | 1.0 | 4.0 | 0.00 | 0.09 | 0.00 | 80 | 1020.3 | |
| 20260906021552 | 59 | 0.0 | 1.0 | 0.00 | 0.09 | 0.00 | 81 | 1020.6 | |
| 20260906020059 | 59 | 0.0 | 3.0 | 0.00 | 0.09 | 0.00 | 80 | 1020.7 | |
| 20260906014547 | 58 | 0.0 | 2.0 | 0.00 | 0.10 | 0.00 | 83 | 1020.9 | |
| 20260906013101 | 57 | 3.0 | 6.0 | 0.00 | 0.10 | 0.00 | 83 | 1020.9 | |
| 20260906011548 | 58 | 2.0 | 4.0 | 0.00 | 0.10 | 0.00 | 82 | 1020.8 | |
| 20260906010044 | 56 | 1.0 | 4.0 | 0.00 | 0.10 | 0.00 | 86 | 1020.8 | |
| 20260906004542 | 57 | 0.0 | 2.0 | 0.00 | 0.10 | 0.00 | 85 | 1020.8 | |
| 20260906003040 | 57 | 1.0 | 3.0 | 0.00 | 0.10 | 0.00 | 84 | 1020.7 | |
| 20260906001537 | 56 | 0.0 | 2.0 | 0.00 | 0.10 | 0.00 | 87 | 1020.5 | |
| 20260906000035 | 55 | 0.0 | 2.0 | 0.00 | 0.10 | 0.00 | 87 | 1020.4 | |
| 20260905234535 | 55 | 0.0 | 3.0 | 0.00 | 0.10 | 0.00 | 87 | 1020.3 | |
| 20260905233039 | 55 | 0.0 | 2.0 | 0.00 | 0.10 | 0.00 | 88 | 1020.1 | |
| 20260905231530 | 55 | 0.0 | 2.0 | 0.00 | 0.10 | 0.00 | 88 | 1019.9 | |
| 20260905230026 | 54 | 0.0 | 3.0 | 0.00 | 0.10 | 0.00 | 89 | 1019.7 | |
| 20260905224523 | 54 | 0.0 | 4.0 | 0.00 | 0.11 | 0.00 | 91 | 1019.5 | |
| 20260905223020 | 53 | 0.0 | 3.0 | 0.00 | 0.11 | 0.00 | 92 | 1019.4 | |
| 20260905221517 | 52 | 0.0 | 2.0 | 0.00 | 0.11 | 0.00 | 94 | 1019.0 | |
| 20260905220015 | 51 | 0.0 | 4.0 | 0.00 | 0.11 | 0.00 | 94 | 1019.0 | |
| 20260905214515 | 51 | 0.0 | 3.0 | 0.00 | 0.11 | 0.00 | 94 | 1018.8 | |
| 20260905213014 | 51 | 0.0 | 2.0 | 0.00 | 0.11 | 0.00 | 95 | 1018.5 | |
| 20260905211508 | 50 | 1.0 | 2.0 | 0.00 | 0.11 | 0.00 | 95 | 1018.3 | |
| 20260905210005 | 50 | 0.0 | 3.0 | 0.00 | 0.11 | 0.00 | 94 | 1018.0 | |
| 20260905204504 | 50 | 0.0 | 4.0 | 0.00 | 0.11 | 0.00 | 95 | 1017.9 | |
| 20260905203005 | 50 | 0.0 | 3.0 | 0.00 | 0.11 | 0.00 | 94 | 1017.4 | |
| 20260905201501 | 50 | 2.0 | 4.0 | 0.00 | 0.11 | 0.00 | 94 | 1017.3 | |
| 20260905200105 | 50 | 0.0 | 4.0 | 0.00 | 0.11 | 0.00 | 94 | 1017.1 | |
| 20260905194558 | 50 | 0.0 | 4.0 | 0.00 | 0.11 | 0.00 | 94 | 1017.2 | |
| 20260905193055 | 50 | 1.0 | 4.0 | 0.00 | 0.11 | 0.00 | 94 | 1017.0 | |
| 20260905191554 | 51 | 1.0 | 4.0 | 0.00 | 0.11 | 0.00 | 94 | 1017.1 | |
| 20260905190051 | 51 | 0.0 | 2.0 | 0.00 | 0.11 | 0.00 | 94 | 1016.7 | |
| 20260905184550 | 51 | 0.0 | 4.0 | 0.00 | 0.13 | 0.00 | 95 | 1016.4 | |
| 20260905183047 | 51 | 0.0 | 3.0 | 0.00 | 0.13 | 0.00 | 95 | 1016.2 | |
| 20260905181545 | 51 | 0.0 | 4.0 | 0.00 | 0.13 | 0.00 | 95 | 1015.9 | |
| 20260905174540 | 51 | 2.0 | 6.0 | 0.00 | 0.14 | 0.00 | 94 | 1015.5 | |
| 20260905173139 | 51 | 2.0 | 5.0 | 0.00 | 0.14 | 0.00 | 93 | 1015.4 | |
| 20260905171548 | 51 | 2.0 | 7.0 | 0.00 | 0.14 | 0.00 | 93 | 1015.2 | |
| 20260905170033 | 52 | 1.0 | 6.0 | 0.00 | 0.14 | 0.00 | 93 | 1014.7 | |
| 20260905164534 | 52 | 0.0 | 4.0 | 0.00 | 0.17 | 0.00 | 92 | 1014.6 | |
| 20260905163034 | 52 | 2.0 | 9.0 | 0.00 | 0.17 | 0.00 | 92 | 1014.4 | |
| 20260905161528 | 52 | 1.0 | 5.0 | 0.00 | 0.17 | 0.00 | 92 | 1014.0 | |
| 20260905160025 | 52 | 2.0 | 5.0 | 0.00 | 0.17 | 0.00 | 92 | 1014.0 | |
| 20260905154520 | 51 | 2.0 | 6.0 | 0.00 | 0.17 | 0.00 | 92 | 1013.6 | |
| 20260905153021 | 51 | 3.0 | 6.0 | 0.00 | 0.17 | 0.00 | 92 | 1013.3 | |
| 20260905151516 | 51 | 2.0 | 9.0 | 0.00 | 0.17 | 0.00 | 92 | 1013.0 | |
| 20260905150013 | 51 | 2.0 | 9.0 | 0.00 | 0.17 | 0.00 | 93 | 1012.8 | |
| 20260905144511 | 51 | 2.0 | 7.0 | 0.00 | 0.22 | 0.00 | 92 | 1012.4 | |
| 20260905143008 | 51 | 2.0 | 10.0 | 0.00 | 0.22 | 0.00 | 91 | 1012.1 | |
| 20260905141507 | 52 | 2.0 | 6.0 | 0.00 | 0.22 | 0.00 | 90 | 1011.9 | |
| 20260905140104 | 52 | 1.0 | 5.0 | 0.00 | 0.22 | 0.00 | 90 | 1011.7 | |
| 20260905134606 | 52 | 1.0 | 6.0 | 0.00 | 0.42 | 0.22 | 90 | 1011.5 | |
| 20260905133057 | 52 | 0.0 | 6.0 | 0.00 | 0.42 | 0.22 | 91 | 1011.2 | |
| 20260905131555 | 52 | 1.0 | 6.0 | 0.00 | 0.42 | 0.22 | 91 | 1010.8 | |
| 20260905130051 | 52 | 3.0 | 8.0 | 0.00 | 0.42 | 0.22 | 91 | 1010.3 | |
| 20260905124548 | 52 | 2.0 | 10.0 | 0.00 | 0.43 | 0.22 | 90 | 1009.9 | |
| 20260905123045 | 52 | 4.0 | 9.0 | 0.00 | 0.43 | 0.22 | 91 | 1009.6 | |
| 20260905121546 | 52 | 3.0 | 9.0 | 0.00 | 0.43 | 0.22 | 91 | 1009.4 | |
| 20260905120050 | 52 | 3.0 | 10.0 | 0.00 | 0.43 | 0.22 | 90 | 1009.2 | |
| 20260905114547 | 52 | 3.0 | 14.0 | 0.00 | 0.43 | 0.22 | 89 | 1008.9 | |
| 20260905113042 | 52 | 3.0 | 14.0 | 0.00 | 0.43 | 0.22 | 89 | 1008.6 | |
| 20260905111642 | 52 | 4.0 | 11.0 | 0.00 | 0.43 | 0.22 | 89 | 1008.3 | |
| 20260905110051 | 51 | 4.0 | 10.0 | 0.00 | 0.43 | 0.22 | 89 | 1008.0 |